Location: Clinton NY
(43.0598°N, 75.3602°W)
Time: 16:19:31
(UTC-04:00)

Iridium 11 - Visible Passes

Search period start: 24 June 2016 00:00
Search period end: 04 July 2016 00:00
Orbit: 776 x 779 km, 86.4° (Epoch: 24 June)

Date Brightness Start Highest point End Pass type
(mag) Time Alt. Az. Time Alt. Az. Time Alt. Az.
24 Jun 5.5 21:21:51 10° N 21:27:06 80° E 21:32:19 10° S visible
24 Jun 8.2 23:04:58 10° NW 23:07:03 12° WNW 23:09:08 10° W visible
25 Jun 7.7 22:29:55 10° NNW 22:33:54 22° W 22:37:51 10° SW visible
26 Jun 6.9 21:55:46 10° NNW 22:00:36 39° W 22:05:25 10° SSW visible
27 Jun 5.8 21:21:59 10° N 21:27:12 72° W 21:32:23 10° S visible
28 Jun 8.1 22:30:45 10° NW 22:33:47 16° WNW 22:36:50 10° WSW visible
29 Jun 7.5 21:56:11 10° NNW 22:00:34 28° W 22:04:57 10° SW visible
30 Jun 6.5 21:22:12 10° NNW 21:27:14 50° W 21:32:15 10° SSW visible
01 Jul 8.5 22:32:26 10° WNW 22:33:38 11° WNW 22:34:51 10° W visible
02 Jul 8.1 21:56:48 10° NW 22:00:30 20° W 22:04:12 10° SW visible
03 Jul 7.2 21:22:32 10° NNW 21:27:14 35° W 21:31:55 10° SSW visible
